This is the latest recevied weather packets stored in our database for station/object K4DNM. If no packets are shown the sender has not sent any weather packets the latest 10 day(s).
| Time | Temp. | Humidity | Pressure | Rain* | Wind** | Luminosity | Snow |
|---|---|---|---|---|---|---|---|
| 1787952626 | 27.78° C | 85% | 1014.8 hPa | 0 mm | - | 19 W/m² | - |
| 1787952319 | 27.78° C | 85% | 1014.8 hPa | 0 mm | - | 19 W/m² | - |
| 1787952076 | 27.78° C | 83% | 1014.8 hPa | 0 mm | - | 19 W/m² | - |
| 1787951714 | 27.78° C | 83% | 1014.9 hPa | 0 mm | - | 19 W/m² | - |
| 1787951413 | 27.78° C | 83% | 1014.7 hPa | 0 mm | - | 21 W/m² | - |
| 1787951113 | 27.78° C | 83% | 1014.6 hPa | 0 mm | - | 27 W/m² | - |
| 1787950868 | 28.33° C | 83% | 1014.9 hPa | 0 mm | - | 28 W/m² | - |
| 1787950510 | 28.33° C | 81% | 1015 hPa | 0 mm | - | 35 W/m² | - |
| 1787950209 | 28.33° C | 80% | 1014.9 hPa | 0 mm | - | 42 W/m² | - |
| 1787949906 | 28.89° C | 79% | 1014.8 hPa | 0 mm | - | 49 W/m² | - |
| 1787949603 | 28.89° C | 79% | 1014.7 hPa | 0 mm | - | 54 W/m² | - |
| 1787949303 | 29.44° C | 78% | 1014.8 hPa | 0 mm | - | 56 W/m² | - |
| 1787949004 | 29.44° C | 77% | 1014.7 hPa | 0 mm | - | 59 W/m² | - |
| 1787948701 | 29.44° C | 76% | 1014.8 hPa | 0 mm | - | 72 W/m² | - |
| 1787948462 | 29.44° C | 76% | 1014.8 hPa | 0 mm | - | 84 W/m² | - |
| 1787948097 | 29.44° C | 74% | 1014.8 hPa | 0 mm | - | 103 W/m² | - |
| 1787947797 | 29.44° C | 73% | 1014.7 hPa | 0 mm | - | 105 W/m² | - |
| 1787947556 | 29.44° C | 73% | 1014.7 hPa | 0 mm | - | 120 W/m² | - |
| 1787947191 | 29.44° C | 73% | 1014.6 hPa | 0 mm | - | 141 W/m² | - |
| 1787946891 | 29.44° C | 74% | 1014.6 hPa | 0 mm | - | 138 W/m² | - |
| 1787946591 | 30° C | 72% | 1014.8 hPa | 0 mm | - | 149 W/m² | - |
| 1787946346 | 30° C | 72% | 1014.8 hPa | 0 mm | - | 152 W/m² | - |
| 1787945985 | 30° C | 70% | 1014.8 hPa | 0 mm | - | 137 W/m² | - |
| 1787945683 | 30° C | 71% | 1014.9 hPa | 0 mm | - | 215 W/m² | - |
| 1787945381 | 30° C | 70% | 1014.9 hPa | 0 mm | - | 273 W/m² | - |
* Rain latest hour (hover to see other rain measurements)
** Current wind speed in m/s (hover to see current wind gust speed)